Location: Banska Bystrica
(0.0000°N, 19.1500°E)
Time: 05:47:10
(UTC+02:00)

Daily predictions for brighter satellites

Satellite Brightness Start Highest point End
(mag) Time Altitude Azimuth Time Altitude Azimuth Time Altitude Azimuth
Ariane H10+ 4.3 03:45:33 76° NW 03:46:28 78° N 03:55:06 10° ENE
Cosmos 1844 Rocket 4.2 04:29:33 27° N 04:29:33 27° N 04:31:57 10° N
Intelsat 5-1 Rocket 4.3 04:30:02 52° NW 04:32:01 59° NNW 04:55:59 10° ENE
Centaur Rocket 4.3 04:39:54 45° ESE 04:39:54 45° ESE 04:46:26 10° ENE
Cosmos 883 Rocket 4.3 04:50:41 57° S 04:52:05 87° E 04:58:15 10° N
Ariane H10+ 3.2 04:55:08 75° W 04:55:44 87° S 05:03:28 10° E
Meteor 1-31 Rocket 3.9 04:52:33 10° NNE 04:55:17 40° NE 04:55:17 40° NE
Cosmos 1607 3.8 04:51:19 10° NNW 04:57:44 77° WSW 05:04:06 10° SSE
Cosmos 1484 Rocket 3.9 04:56:50 10° NNE 04:59:12 37° NNE 04:59:12 37° NNE
Ariane H10 4.0 05:03:14 35° SE 05:03:14 35° SE 05:05:30 10° ESE
Lacrosse 5 rocket 2.9 05:02:00 28° SSE 05:03:08 33° ESE 05:07:08 10° NE
ARIANE 5 DEB (SYLDA) 4.0 05:01:29 46° W 05:03:59 77° N 05:08:48 10° E
Meteor 2-15 Rocket 4.3 05:06:05 55° SW 05:06:59 61° W 05:12:57 10° N
DELTA 2 R/B (1) 3.5 05:06:41 59° SSW 05:07:45 81° SE 05:13:21 10° NE
ARIANE 5 R/B 4.2 05:09:19 16° E 05:09:19 16° E 05:09:50 10° E
CZ-4B R/B 3.6 05:05:36 10° SE 05:08:32 26° E 05:11:24 10° NNE
ARIANE 5 DEB (SYLDA) 2.8 05:09:04 79° NE 05:09:04 79° NE 05:14:15 10° E
SEDSat Delta rocket 4.5 05:09:17 36° SSW 05:11:49 54° SSE 05:18:26 10° ENE
Cosmos 1943 4.2 05:07:01 10° N 05:12:21 45° ENE 05:17:43 10° SSE
Cosmos 1745 Rocket 3.9 05:11:28 10° N 05:17:39 85° E 05:23:48 10° S
ASC 2 Rocket 3.7 05:16:11 32° NNW 05:17:42 48° NNE 05:22:17 10° ESE
Ariane H10-3 3.7 05:20:58 34° W 05:23:59 85° S 06:12:50 10° E
ARIANE 5 R/B 3.1 05:16:48 24° W 05:25:04 87° N 05:28:37 10° E
SJ-12 3.8 05:25:30 10° NNE 05:29:32 85° ESE 05:32:53 15° S
Cosmos 1812 Rocket 3.7 05:29:55 10° S 05:34:15 75° E 05:38:33 10° N
Meteor 2-10 Rocket 3.5 05:29:54 10° S 05:34:53 77° E 05:39:56 10° N
Meteor 1-11 4.1 05:30:22 10° N 05:35:59 73° W 05:41:35 10° S
SAR-Lupe-4 3.4 05:36:57 10° S 05:40:31 81° WSW 05:44:04 10° NNW
Cosmos 1689 Rocket 4.3 05:39:24 10° SE 05:41:59 28° E 05:44:33 10° NNE
Cosmos 2315 Rocket 4.5 05:39:00 17° SW 05:43:07 36° W 05:48:47 10° NNW
GPS 2-14 Rocket1 3.2 05:42:49 26° SW 05:44:29 43° SSE 05:48:06 10° E
FENGYUN 3A 4.2 05:40:59 10° NNW 05:45:49 35° WNW 05:49:27 16° SW
SPELTRA 3.5 05:46:28 21° SW 05:48:24 31° S 05:51:34 10° ESE
GPS 2-12 Rocket1 4.5 05:46:23 17° WNW 05:49:08 28° NNW 05:53:16 10° NE
Cosmos 2278 Rocket 2.1 05:44:54 10° SSW 05:50:34 79° WNW 05:56:14 10° NNE
Cosmos 724 4.3 05:45:55 10° NNW 05:52:04 80° WSW 05:58:15 10° SSE
ADEOS Rocket 3.6 05:46:27 10° SSE 05:53:16 81° ENE 06:00:46 10° N
SWIFT 2.9 05:52:30 20° W 05:55:01 46° NNW 05:59:03 10° NE
SAR-Lupe-1 4.3 05:52:22 10° S 05:55:50 46° WSW 05:59:16 10° NNW
GPS 2-04 Rocket1 3.9 05:54:00 12° SSW 05:56:59 32° SE 06:00:22 10° ENE
ALOS 3.5 05:53:56 10° NNW 05:57:30 22° WNW 05:59:41 16° WSW
Cosmos 1455 2.3 05:54:01 10° SSW 05:57:44 52° W 06:01:28 10° N
Cosmos 1709 Rocket 3.9 05:52:14 10° N 05:58:19 79° W 06:04:26 10° S
NOSS 3-4 (A) 3.3 05:52:32 10° SSW 05:58:39 84° WNW 06:04:32 10° NNE
NOSS 3-4 (C) 3.3 05:52:39 10° SSW 05:58:47 85° WNW 06:04:40 10° NNE
CZ-4B R/B 4.1 05:58:37 10° NNW 06:02:18 26° WNW 06:05:47 10° SW
ERBS 2.9 06:00:51 10° NW 06:03:51 32° WSW 06:06:51 10° S
Sylda 5 2.3 06:00:30 13° W 06:04:33 61° N 06:08:02 10° ENE
H-2A R/B 2.4 06:00:50 10° N 06:04:33 53° WNW 06:08:21 10° SSW
ASTEX 1 3.6 06:02:35 10° N 06:07:19 51° W 06:12:06 10° SSW
HETE-2 4.5 06:06:07 14° W 06:09:39 85° S 06:13:47 10° E
Nadezhda 1 Rocket 4.2 06:04:00 10° S 06:10:22 83° E 06:16:46 10° N
CZ-3 R/B 4.3 06:03:30 12° WSW 06:15:34 19° SW 06:22:23 10° S
ASTRO E2 2.6 06:14:29 10° WSW 06:18:26 86° NW 06:22:24 10° NE
Cosmos 494 Rocket 4.0 06:13:18 10° NNW 06:18:29 80° WSW 06:23:43 10° S
ATLAS 2AS CENTAUR R/B 3.1 06:14:40 10° SSW 06:21:59 63° WNW 06:29:46 10° NNE
SMAP 4.2 06:18:09 10° NNE 06:22:36 47° ESE 06:27:05 10° S
Cosmos 2058 3.3 06:18:56 10° N 06:23:06 73° E 06:27:18 10° S
